C/2015 X5 ( PanSTARRS )

Japanese version
Home page
Updated on May 20, 2019

---------------------------------------------------------------------

* Profile

Discovery Date December 6, 2015
Magnitude 21.3 mag
Discoverer Pan-STARRS 1 telescope (Haleakala)

* Pictures

* Orbital Elements

Epoch 2018 Jan. 2.0 TT = JDT 2458120.5
T 2017 Dec. 31.02993 TT                                 MPCW
q   6.8017320            (2000.0)            P               Q
z  -0.0004888      Peri.   27.75238     -0.25135922     +0.67029045
 +/-0.0000006      Node   122.31452     +0.66183191     -0.40736074
e   1.0033249      Incl.  124.29092     +0.70625566     +0.62029666
From 197 observations 2015 Dec. 6-2019 Mar. 21, mean residual 0".4.

* Magnitudes Graph

        m1 = 2.3 + 5 log d + 15.0 log r

---------------------------------------------------------------------

The orbital elements are published on M.P.E.C. 2019-J142.
The magnitudes graphs are made with Comet for Windows.

---------------------------------------------------------------------

Copyright(C) Seiichi Yoshida (comet@aerith.net). All rights reserved.